Orbital Elements at Epoch 2459200.5 (2020-Dec-17.0) TDB
Reference: JPL 18 (heliocentric ecliptic J2000)
Element | Value | Uncertainty (1-sigma) | Units |
e | .09798242391660658 | 5.1819e-08 | |
a | 2.595774394441964 | 2.2123e-08 | au |
q | 2.341434127333879 | 1.3842e-07 | au |
i | 6.033016098869179 | 6.2862e-06 | deg |
node | 172.526724103645 | 4.8433e-05 | deg |
peri | 293.767388949152 | 5.6573e-05 | deg |
M | 72.05772318111346 | 2.8713e-05 | deg |
tp | 2458894.742669652264 (2020-Feb-15.24266965) | 0.00012116 | TDB |
period | 1527.561988720112 4.18 | 1.9528e-05 5.346e-08 | d yr |
n | .2356696505008158 | 3.0128e-09 | deg/d |
Q | 2.850114661550049 | 2.4291e-08 | au |
|
| | Orbit Determination Parameters
Additional Information
|